Regional Weather Roundup
Issued by NWS Upton, NY

Current Version | Previous Version | Graphics & Text | Print | Product List | Glossary Off
Versions: 1 2 3 4 5 6 7 8 9 10 11 12 13 14 15 16 17 18 19 20 21 22 23 24 25 26 27 28 29 30 31 32 33 34 35 36 37 38 39 40 41 42 43 44 45 46 47 48 49 50

000
ASUS41 KOKX 271605
RWROKX

REGIONAL WEATHER ROUNDUP
NATIONAL WEATHER SERVICE NEW YORK NY
1100 AM EST FRI FEB 27 2015

NOTE: "FAIR" INDICATES FEW OR NO CLOUDS BELOW 12,000 FEET WITH NO
SIGNIFICANT WEATHER AND/OR OBSTRUCTIONS TO VISIBILITY.

NYZ071-072-176-178-NJZ106-104-271700-
NEW YORK CITY METRO AREA


CITY           SKY/WX    TMP DP  RH WIND       PRES   REMARKS
CENTRAL PARK   SUNNY     23   5  46 VRB5      30.42R WCI  17
LAGUARDIA APRT PTSUNNY   22   6  50 N8        30.40S WCI  12
KENNEDY INTL   MOSUNNY   25   6  44 N12       30.41R WCI  14
NEWARK/LIBERTY MOSUNNY   23   7  50 N6        30.41R WCI  16
BRNX BOT. GARD   N/A    N/A N/A N/A NW12      30.41S
TETERBORO      SUNNY     22   5  48 VRB3      30.41R
$$

NYZ177-179-078>081-271700-
LONG ISLAND NEW YORK

CITY           SKY/WX    TMP DP  RH WIND       PRES   REMARKS
FARMINGDALE    SUNNY     23   7  50 N10       30.39R WCI  12
ISLIP          MOSUNNY   23   6  48 N10       30.37R WCI  12
SHIRLEY        MIX PCPN  24   8  50 NW8       30.39R WCI  15
WESTHAMPTON    SUNNY     23   9  55 NW9       30.39R WCI  13
MONTAUK POINT  NOT AVBL
$$

NYZ052-065-067-271700-
HUDSON VALLEY

CITY           SKY/WX    TMP DP  RH WIND       PRES   REMARKS
WHITE PLAINS   SUNNY     20   0  41 NW9       30.36R WCI   9
NEWBURGH       SUNNY     18   1  49 VRB5      30.39R WCI  11
MONTGOMERY     SUNNY     18   1  47 CALM      30.38S
POUGHKEEPSIE   SUNNY     20  -2  38 N8        30.41S WCI  10
ALBANY         SUNNY     16  -4  41 NW9       30.42S WCI   4
$$

NJZ001-105-106-008-010-013-015-019>022-104-271700-
NEW JERSEY

CITY           SKY/WX    TMP DP  RH WIND       PRES   REMARKS
NEWARK/LIBERTY MOSUNNY   23   7  50 N6        30.41R WCI  16
TETERBORO      SUNNY     22   5  48 VRB3      30.41R
CALDWELL       SUNNY     22   3  44 NE5       30.41R WCI  16
MORRISTOWN     SUNNY     21   5  49 W5        30.41R WCI  15
SOMERVILLE     SUNNY     24   3  40 NW9       30.40R WCI  14
SUSSEX         MIX PCPN  20  -1  40 N7        30.38R WCI  11
ANDOVER          N/A     20  -1  40 N8        30.38R WCI  10
TRENTON        SUNNY     25   7  46 N8        30.40R WCI  16
MILLVILLE      CLOUDY    28  16  60 VRB7      30.40R WCI  21
ATLANTIC CITY  SUNNY     29  15  56 NW8       30.40R WCI  21
WRIGHTSTOWN    MOSUNNY   26  11  53 W7        30.39R WCI  18
TOMS RIVER     PTSUNNY   27  12  54 NW12      30.40R WCI  16
BELMAR         SUNNY     27   9  46 NW8       30.38S WCI  18
$$

PAZ047>061-062-071-271700-
EASTERN PENNSYLVANIA

CITY           SKY/WX    TMP DP  RH WIND       PRES   REMARKS
PHILADELPHIA   CLOUDY    26  12  55 NW8       30.43R WCI  18
ALLENTOWN      SUNNY     20   3  48 CALM      30.41S
SCRANTON       MOSUNNY   16   2  54 N5        30.37F WCI   9
$$

CTZ002-004>006-009-010-012-RIZ004-006-007-MAZ004-011-015-271700-
SOUTHERN NEW ENGLAND
 IN CT

CITY           SKY/WX    TMP DP  RH WIND       PRES   REMARKS
BRADLEY INTL   MOSUNNY   21   2  43 N8        30.36F WCI  11
HARTFORD       SUNNY     20   3  48 VRB6      30.39S WCI  12
DANBURY        SUNNY     18  -6  34 N12       30.37S WCI   5
WTRBRY/OXFORD  SUNNY     18  -4  38 N12       30.34R WCI   5
BRIDGEPORT     SUNNY     23   2  40 NW7       30.38S WCI  15
MERIDEN        SUNNY     22   1  40 N6        30.37F WCI  14
NEW HAVEN      SUNNY     22   4  46 VRB6      30.38R WCI  14
CHESTER        FAIR      21   5  49 N9        30.34S WCI  11
GROTON         SUNNY     23   6  48 NW5       30.35S WCI  17
WILLIMANTIC    SUNNY     22   4  46 NW8       30.35R WCI  12

 IN RI

CITY           SKY/WX    TMP DP  RH WIND       PRES   REMARKS
PROVIDENCE     MOSUNNY   22   3  44 N7        30.34F WCI  13
BLOCK ISLAND   MOSUNNY   25   7  46 N6        30.33R WCI  18
WESTERLY       SUNNY     25   4  40 NW6       30.35R WCI  18

 IN MA

CITY           SKY/WX    TMP DP  RH WIND       PRES   REMARKS
BOSTON         MOSUNNY   20  -4  34 NW8G17    30.35S WCI  10
WORCESTER      SUNNY     17  -5  37 NW8       30.26S WCI   7
WESTFIELD      SUNNY     20   1  43 W6        30.35F WCI  12
PROVINCETOWN   SUNNY     21   9  58 NW12      30.33S WCI   9
NANTUCKET      PTSUNNY   25  12  58 N14       30.32R WCI  13
$$

ANZ330-335-338-340-345-350-353-355-271700-
COASTAL MARINE OBSERVATIONS


STATION/POSITION TIME  SKY/WX   TEMP    WIND        PRES    VSBY  WAVE
                                AIR SEA DIR/SP/G                  HT/PER
                 (UTC)          (F)     (DEG/KT/KT) (MB)    (MI)  (FT/S)
NY HARB ENTRANCE 1600            23 38  340/ 10/ 14 1029.3          4/11
4S FIRE IS       NOT AVBL
20S FIRE ISLAND  1500               36              1029.0          6/11
23SW MTP         1600                                 N/A           5/11
HUDSON CANYON    NOT AVBL
EXECUTION ROCKS  NOT AVBL
WESTERN LI SOUND NOT AVBL
CENTRAL LI SOUND NOT AVBL
EASTERN LI SOUND NOT AVBL
ROBBINS REEF     1600            20     360/  8/ 11 1028.6
$$


>>>>>>>>>>>>>>>>>>>>>>>>>>>> KEY <<<<<<<<<<<<<<<<<<<<<<<<<<<
>                                                          <
>     SKY/WX - SKY CONDITION/PRESENT WEATHER               <
>     TMP    - TEMPERATURE IN FAHRENHEIT                   <
>     DP     - DEWPOINT IN FAHRENHEIT                      <
>     RH     - RELATIVE HUMIDITY IN PERCENT                <
>     WIND   - DIRECTION AND SPEED IN MPH                  <
>     PRES   - MEAN SEA LEVEL PRESSURE IN INCHES OF HG     <
>     WCI    - WIND CHILL INDEX                            <
>     VSB    - VISIBILITY IN MILES                         <
>     HX     - HEAT INDEX                                  <
>     TC     - TEMPERATURE IN CELSIUS                      <
>     VRB    - VARIABLE WIND DIRECTION                     <
>                                                          <
>>>>>>>>>>>>>>>>>>>>>>>>>>>> KEY <<<<<<<<<<<<<<<<<<<<<<<<<<<




USA.gov is the U.S. government's official web portal to all federal, state and local government web resources and services.